Regional Weather Roundup
Issued by NWS Albany, NY

Home | Current Version | Previous Version | Text Only | Print | Product List | Glossary On
Versions: 1 2 3 4 5 6 7 8 9 10 11 12 13 14 15 16 17 18 19 20 21 22 23 24 25 26 27
000
ASUS41 KALY 240010
RWRALY

NEW YORK STATE HOURLY WEATHER ROUNDUP
NATIONAL WEATHER SERVICE ALBANY NY
800 PM EDT SAT JUL 23 2016

NOTE: "FAIR" INDICATES FEW OR NO CLOUDS BELOW 12,000 FEET WITH NO
SIGNIFICANT WEATHER AND/OR NO OBSTRUCTIONS TO VISIBILITY.

NYZ032-033-038>043-046>054-057>066-NYZ062>081-082-084-240100-
EAST


CITY           SKY/WX    TMP DP  RH WIND       PRES   REMARKS
ALBANY         CLOUDY    70  64  81 N5        29.91R
GLENS FALLS    MOCLDY    68  64  87 CALM      29.90R
POUGHKEEPSIE   CLEAR     89  57  33 N8        29.84R
NEWBURGH       CLEAR     86  59  39 W16G26    29.88R
MONTGOMERY     PTCLDY    86  59  39 N8        29.87R
WHITE PLAINS   PTCLDY    88  50  27 NW13      29.83R
ISLIP          PTCLDY    90  55  30 W7        29.81R
NEW YORK CITY  PTCLDY    95  59  30 NW10      29.80R HX  94
CENTRAL PARK   PTCLDY    91  60  35 VRB5      29.85R HX  90
$$

NYZ005>009-017-018-044>046-055-056-240100-
CENTRAL


CITY           SKY/WX    TMP DP  RH WIND       PRES   REMARKS
FULTON         MOCLDY    83  61  47 W9        29.90R
SYRACUSE       PTCLDY    84  57  39 W14       29.90R
ROME           CLOUDY    70  67  90 CALM      29.91R
ELMIRA         CLEAR     85  52  32 N8        29.92R
BINGHAMTON     CLEAR     80  56  43 N12       29.97R
MONTICELLO     CLEAR     79  55  44 NW8       29.95R
$$

NYZ026>034-041>043-087-240100-
NORTH


CITY           SKY/WX    TMP DP  RH WIND       PRES   REMARKS
WATERTOWN      CLEAR     79  67  66 CALM      29.89R
FORT DRUM      NOT AVBL
MASSENA        CLEAR     71  63  75 S5        29.88S
SARANAC LAKE   PTCLDY    66  59  78 CALM      29.93R
PLATTSBURGH    PTCLDY    68  65  90 CALM      29.86S
$$

NYZ001>004-010>016-019>021-085-240100-
WEST


CITY           SKY/WX    TMP DP  RH WIND       PRES   REMARKS
NIAGARA FALLS  PTCLDY    89  53  29 N7        29.91R
BUFFALO        PTCLDY    82  64  54 SW8       29.93R
DUNKIRK        CLEAR     81  61  50 SW8       29.94S
JAMESTOWN      CLEAR     79  57  47 W7        30.01S
WELLSVILLE     CLEAR     80  54  40 NW8       30.03R
ROCHESTER      PTCLDY    86  56  35 NW6       29.92S
PENN YAN       CLEAR     85  54  34 NW5       29.95R
$$

             KEY
       WCI = WIND CHILL INDEX
       VSB = VISIBILITY
       HX  = HEAT INDEX
$$




USA.gov is the U.S. government's official web portal to all federal, state and local government web resources and services.